Theta_e
310 310 310 310 310 310 310 311 311 311 311 312 312 312 313 313 313 313 314 313 314 314 313 312 314 314 314 316 318 317 309 310 313 314 314 315 313 315 316 314 316 316 316 316 315
309 309 309 310 310 310 311 311 311 312 312 312 312 312 312 313 313 314 314 313 313 313 312 312 313 314 315 317 318 313 307 309 311 314 315 315 314 315 314 314 314 314 314 314 315
309 309 309 310 310 311 311 311 312 312 312 312 312 312 313 313 314 315 312 312 312 311 311 314 315 315 315 316 318 314 310 311 314 315 316 315 314 314 314 312 314 314 314 315 315
309 309 310 310 311 311 312 312 312 311 311 311 312 313 315 317 312 313 313 313 312 312 313 315 315 315 314 313 315 316 315 315 315 316 315 314 315 315 314 315 315 314 314 313 314
310 310 311 311 312 312 311 311 310 310 310 312 315 317 318 318 318 317 315 315 314 313 313 314 314 314 313 313 313 312 313 314 315 315 314 314 313 313 314 315 314 313 313 314 315
311 311 311 311 310 309 309 309 309 311 314 316 317 317 318 316 318 318 317 317 315 313 312 313 313 314 314 313 312 312 313 313 314 314 313 312 311 313 315 315 313 313 313 313 314
311 310 310 309 309 310 311 312 314 315 316 317 317 317 318 318 318 318 317 316 314 312 311 312 313 314 313 312 313 313 312 309 311 311 311 312 311 311 315 314 311 312 312 312 311
315 316 316 316 315 314 314 315 316 316 316 316 317 319 317 317 317 317 317 316 315 313 312 312 314 314 314 313 311 311 310 311 312 311 312 312 313 312 315 314 309 310 310 310 310
314 314 313 313 314 314 314 315 315 315 315 317 318 318 317 316 316 316 316 314 313 312 312 313 314 313 312 308 308 308 311 310 311 312 311 311 312 312 315 313 308 308 307 307 307
314 313 313 313 313 313 314 315 317 317 318 319 319 316 317 315 315 314 312 311 312 312 312 312 312 308 307 307 312 312 310 309 309 311 311 312 310 308 312 310 308 306 305 304 304
317 315 314 313 314 314 316 318 319 319 318 318 317 317 315 316 314 312 311 311 311 311 309 310 308 309 309 308 310 311 309 309 308 309 311 310 310 308 305 305 304 303 302 302 301
323 322 317 315 315 316 317 320 319 318 318 318 319 318 316 314 313 311 311 311 311 311 309 309 309 309 309 308 309 309 310 309 309 309 310 311 311 305 303 303 303 301 300 300 300
325 325 323 317 316 317 318 317 320 321 318 319 318 319 319 318 316 315 312 311 311 310 309 311 312 310 309 309 310 310 310 311 312 311 309 310 310 307 303 302 301 301 300 300 300
325 325 324 319 317 318 317 317 320 320 316 316 316 316 317 317 315 317 314 314 310 311 310 310 310 311 310 311 310 313 311 311 312 310 311 309 312 308 304 302 300 299 299 299 299
325 325 325 322 319 319 320 318 321 316 325 316 313 312 314 316 311 309 310 311 311 311 310 314 313 312 312 311 311 313 310 310 309 308 309 309 310 308 304 304 301 299 299 298 297
323 324 325 321 318 320 319 320 318 321 325 314 309 308 309 308 308 308 310 311 311 311 310 312 310 309 310 309 310 308 308 308 306 307 311 309 310 311 305 305 301 300 299 298 297
322 324 324 323 319 319 321 318 322 320 317 312 309 308 308 307 308 307 307 307 308 310 312 311 310 309 308 309 308 308 307 311 313 312 314 309 310 311 305 303 302 300 299 297 297
320 320 323 324 321 320 320 319 318 318 319 311 310 309 310 310 308 308 307 308 307 309 309 313 314 309 307 309 309 306 308 312 312 313 313 309 313 310 301 301 301 300 298 297 296
319 320 322 322 321 320 319 322 320 319 319 317 315 314 315 315 314 310 309 310 310 307 314 313 313 308 307 308 309 308 309 309 309 294 306 310 307 303 300 299 298 298 297 297 297
318 321 322 321 320 320 320 322 319 316 317 316 315 313 315 315 315 313 311 310 311 307 310 311 312 310 308 308 307 309 307 311 308 307 308 309 309 309 302 300 297 296 296 297 297
319 318 319 319 319 318 321 319 316 315 318 317 315 316 313 315 314 315 313 312 309 308 309 309 310 310 309 309 309 308 309 309 309 308 306 305 307 305 304 301 298 297 298 299 298
315 316 317 318 316 316 316 314 315 315 316 318 317 318 318 316 316 315 314 311 308 308 310 309 310 307 310 306 306 307 308 308 313 311 306 307 310 301 303 301 299 298 299 299 298
313 309 311 313 318 315 313 313 314 314 315 317 317 316 315 317 318 316 313 307 307 308 310 310 310 304 310 307 306 307 307 306 305 303 307 308 308 300 300 300 301 301 301 300 298
306 308 308 309 310 312 313 313 315 313 314 314 315 314 314 315 314 313 311 306 304 307 307 308 306 307 312 308 305 305 306 305 304 303 306 306 303 302 300 299 300 300 300 300 297
305 304 305 306 307 310 311 310 312 313 312 313 313 314 315 313 312 310 308 306 304 303 303 306 310 305 304 305 305 304 305 305 303 303 306 305 304 302 299 298 299 299 298 296 292
303 302 301 300 305 308 309 308 310 311 311 310 311 310 312 313 310 308 307 306 307 300 303 299 305 302 303 298 299 302 302 304 303 303 301 302 303 298 300 295 295 296 295 291 290
302 302 302 303 302 303 304 306 308 309 306 306 307 306 307 308 304 300 303 303 302 303 302 301 299 301 304 292 293 297 297 302 303 301 303 302 300 291 288 291 292 292 291 290 290
Wind_Speed
7 6 6 5 5 5 5 6 6 7 7 8 9 9 10 11 12 14 15 7 6 6 6 4 4 2 1 1 1 2 4 1 4 4 3 5 5 3 9 4 4 5 7 11 13
9 8 8 7 7 7 7 7 7 8 9 9 9 10 12 13 14 14 5 3 3 3 3 4 4 2 2 2 1 3 3 7 4 2 2 5 3 8 5 12 9 12 11 6 8
11 10 10 9 9 9 9 9 9 9 10 10 11 11 11 12 14 3 1 2 2 4 7 7 5 1 0 1 3 4 5 4 5 9 5 3 4 2 3 5 17 17 18 14 9
13 12 12 11 11 11 11 11 11 11 11 11 11 11 11 10 4 3 3 2 2 4 7 7 4 2 2 2 4 1 8 7 3 4 4 4 5 5 9 18 21 18 11 6 6
15 14 14 13 13 13 13 13 13 13 12 10 10 10 10 8 10 10 10 9 8 8 10 8 7 5 3 3 1 3 4 7 12 14 13 13 11 10 20 23 7 5 5 5 8
17 16 16 16 15 15 15 14 14 13 12 11 11 10 10 9 10 10 10 9 8 9 11 10 5 8 3 3 4 1 5 12 13 21 13 7 3 3 8 2 7 4 8 7 6
19 17 17 16 15 14 14 14 14 13 13 13 12 11 13 19 13 10 10 8 7 8 10 11 10 6 3 1 2 3 5 7 11 6 5 3 1 7 6 8 7 5 6 5 6
18 19 18 17 16 15 15 16 15 14 13 13 12 11 10 13 14 14 14 12 11 11 10 9 7 7 4 1 3 2 3 3 3 3 1 5 6 5 6 9 6 6 7 5 7
18 17 17 17 17 15 15 15 14 14 14 13 12 10 9 11 12 14 12 10 9 9 9 7 7 4 3 5 4 4 3 5 8 2 2 2 5 7 16 16 9 10 9 11 11
18 17 16 17 17 16 14 13 13 14 14 13 14 6 15 8 8 9 9 9 6 9 7 6 4 3 2 4 5 6 5 5 5 1 3 2 7 10 22 13 14 15 15 17 18
18 17 15 15 15 16 13 10 9 7 17 12 6 7 3 12 8 9 10 12 8 7 5 4 4 8 12 10 2 3 5 5 4 6 0 6 5 6 17 12 18 19 21 23 25
19 17 16 15 15 16 15 8 7 4 10 17 24 22 16 10 7 13 14 11 8 6 6 3 7 11 3 5 6 5 5 6 4 6 4 5 7 5 14 9 15 19 21 23 24
24 21 19 17 17 18 18 16 12 8 6 10 22 20 24 24 14 17 20 10 6 6 7 8 6 4 8 6 6 4 6 4 7 3 3 1 4 2 5 15 19 18 22 23 25
27 26 23 21 20 21 21 14 12 4 4 6 6 6 12 12 6 16 23 10 4 10 6 7 6 6 4 6 8 4 7 7 4 4 4 1 4 3 4 5 8 13 19 22 23
28 28 32 31 16 16 16 17 12 7 6 2 4 6 10 10 9 5 15 7 6 7 7 6 4 4 5 9 6 7 4 5 3 3 1 2 2 3 7 4 4 9 15 18 19
24 28 28 29 28 21 18 16 18 5 12 4 6 6 6 4 4 6 4 4 3 3 0 5 2 3 6 2 6 5 5 6 4 3 2 8 7 4 6 7 8 12 17 18 18
27 25 30 37 37 29 20 21 5 6 1 6 5 6 5 5 4 5 6 5 6 5 5 2 4 2 3 4 2 3 5 1 2 1 5 4 3 3 6 3 17 20 20 19 17
28 25 31 36 37 30 25 5 6 7 8 2 5 4 6 6 5 7 7 6 6 2 4 6 4 8 6 6 6 6 7 5 7 4 3 1 6 3 2 15 25 26 24 20 16
25 29 37 39 41 36 27 9 7 6 6 8 4 4 4 4 6 4 7 5 8 11 7 6 5 1 3 3 5 5 5 3 5 3 3 4 1 1 4 7 18 24 23 20 16
25 30 38 37 44 39 12 15 7 3 4 4 9 7 9 8 8 8 9 6 6 12 2 6 2 1 1 3 2 4 4 2 2 2 5 4 5 4 8 12 10 14 23 21 16
28 14 17 23 34 21 8 7 5 10 9 7 9 8 7 8 8 6 7 2 5 3 6 5 3 2 3 6 7 2 1 0 2 4 5 2 5 2 15 17 17 20 26 23 19
16 5 19 26 10 5 6 5 6 7 7 2 3 0 7 7 6 7 8 3 1 7 8 5 4 4 7 1 2 2 7 7 5 5 2 2 8 7 8 20 23 24 26 21 18
11 5 12 21 8 5 3 4 6 5 5 7 7 5 3 7 7 14 4 3 1 3 7 7 1 2 6 1 2 4 4 4 4 3 8 6 6 5 9 14 22 22 19 18 17
2 2 3 7 2 2 4 2 5 6 4 6 3 7 3 5 2 5 3 3 5 3 6 4 3 8 12 5 4 4 5 5 5 4 5 8 3 3 5 8 15 14 13 17 18
4 2 2 2 5 5 6 6 8 6 3 6 3 10 12 5 5 3 3 0 1 3 3 3 6 2 2 4 2 1 4 10 8 7 9 5 9 11 10 9 15 16 17 21 19
9 5 4 2 7 13 7 8 8 4 6 5 4 9 8 8 7 9 6 3 6 2 5 2 4 3 1 4 4 4 9 7 6 4 6 3 17 8 15 11 12 18 22 23 19
12 9 5 6 4 3 5 6 3 6 4 4 4 4 5 6 5 6 11 9 6 7 6 5 6 4 5 3 3 8 10 17 11 7 10 13 12 7 5 12 19 22 24 22 17
Wind_Direction
258 262 268 268 270 275 282 291 297 303 307 310 313 313 311 313 312 311 310 290 268 256 262 239 195 202 182 111 75 99 62 206 240 184 257 338 7 320 328 277 285 282 283 299 308
255 256 258 262 265 268 272 277 283 291 298 303 306 308 310 312 312 308 298 278 254 231 178 164 170 148 118 125 157 99 118 223 221 203 245 302 289 324 322 310 297 307 328 309 305
253 256 258 260 263 266 271 276 281 286 292 298 302 304 307 315 317 246 184 103 118 148 152 158 147 165 32 215 198 165 198 208 249 245 264 278 272 222 275 292 306 325 320 308 305
258 257 260 262 264 268 273 278 282 285 289 294 297 301 305 310 298 209 198 220 238 205 182 189 208 173 176 225 212 242 251 232 260 248 289 253 280 272 232 273 307 320 325 11 28
257 260 261 265 268 269 270 271 274 278 282 287 290 294 297 282 259 258 255 261 256 241 219 212 208 202 190 211 235 214 277 275 274 280 280 275 258 268 277 295 324 25 66 29 351
258 258 261 262 264 267 269 271 273 275 278 281 283 282 278 258 262 254 257 256 247 238 225 221 231 220 209 226 182 297 279 283 288 279 275 245 272 181 283 317 29 2 28 29 12
259 257 257 258 262 265 267 269 271 275 278 278 280 278 265 259 267 248 243 237 234 233 227 228 216 203 172 259 280 299 315 323 271 283 219 173 87 231 260 316 30 39 43 41 47
255 258 255 257 257 261 265 267 270 272 272 273 274 274 258 261 253 249 244 246 241 231 224 220 215 225 217 196 355 349 45 339 277 179 231 148 257 269 312 334 69 108 121 102 69
255 255 258 257 256 256 260 265 269 271 270 270 270 254 263 254 245 240 240 233 223 215 210 199 190 196 143 98 4 2 239 216 311 244 148 142 253 287 305 320 124 130 116 101 93
258 257 255 254 256 255 258 264 270 270 263 264 250 263 236 228 220 217 211 201 186 183 165 173 162 96 62 111 222 213 220 244 237 321 46 307 255 278 300 333 160 129 113 98 89
256 258 258 258 258 257 257 271 267 255 228 213 215 215 261 207 203 203 197 179 173 174 162 170 121 205 206 202 184 179 196 222 255 269 318 246 244 338 343 63 113 115 110 102 94
253 257 258 257 254 255 254 244 242 272 292 248 245 247 237 219 199 198 185 180 180 191 121 60 224 229 132 173 206 239 243 254 280 264 169 270 282 55 37 52 106 111 107 104 101
250 252 254 254 249 246 248 245 256 283 269 262 236 239 233 231 223 204 193 195 177 179 191 189 210 170 180 192 192 207 197 211 222 322 286 282 289 148 58 74 94 109 117 114 104
244 247 245 240 244 244 243 242 238 236 280 248 216 226 196 185 233 204 199 191 200 202 184 244 237 190 176 220 157 208 212 220 222 138 228 82 269 169 119 75 84 115 120 116 111
242 246 239 231 225 221 232 221 205 160 271 135 157 163 159 177 138 176 183 177 175 179 138 236 192 174 188 221 161 227 151 170 168 151 48 285 96 257 130 158 157 135 126 115 109
250 245 241 230 218 221 215 196 160 163 233 221 143 161 133 183 162 126 156 164 158 147 219 224 228 208 204 98 162 140 97 47 56 89 255 224 174 226 191 187 156 158 143 130 118
249 245 242 236 221 214 204 168 190 200 55 199 187 166 165 161 170 163 162 173 165 140 202 224 226 240 177 106 46 100 96 307 347 341 230 130 132 272 327 233 162 155 152 142 131
253 249 249 233 224 219 195 183 196 184 203 144 133 114 177 159 207 176 141 195 235 196 126 167 242 174 191 192 180 185 166 166 211 201 241 104 232 241 32 117 139 152 153 150 145
255 249 243 232 224 218 190 211 213 186 168 145 80 122 222 226 166 148 193 209 203 188 174 164 267 161 156 142 145 191 186 175 102 28 51 224 338 152 120 122 141 157 164 165 161
250 237 237 236 223 209 206 218 207 205 140 173 168 169 180 194 166 175 178 205 213 192 211 197 151 137 142 103 28 166 164 89 14 169 238 272 268 207 194 180 172 176 181 179 175
226 211 224 224 216 206 220 205 194 212 174 196 190 178 178 181 184 189 199 235 200 189 158 149 134 235 112 197 183 134 200 102 157 154 179 248 256 244 192 182 182 188 189 189 190
203 223 185 182 195 184 193 186 203 169 178 152 68 23 172 172 180 193 207 237 97 169 166 190 142 172 201 125 305 233 205 170 196 218 226 160 257 327 181 177 177 190 196 198 203
209 174 195 186 202 187 140 187 208 160 191 172 187 199 132 201 213 211 210 69 331 214 164 182 57 47 341 341 2 223 202 155 109 62 207 191 256 25 115 148 182 188 197 203 205
266 142 215 255 358 115 172 184 194 192 208 161 183 137 140 167 285 161 180 38 358 45 32 44 113 184 220 192 130 182 201 193 156 177 176 224 208 193 169 166 183 193 200 208 204
206 260 132 204 230 202 152 192 210 204 223 212 171 203 200 160 160 202 184 29 13 22 49 107 238 174 10 29 53 267 229 187 192 210 208 243 223 190 192 194 204 215 210 195 186
178 199 160 274 286 204 176 193 186 174 179 182 214 201 198 205 188 180 161 170 207 128 176 196 188 125 171 16 24 284 238 217 227 211 266 246 269 166 204 212 192 203 195 188 186
204 197 154 185 173 179 207 177 168 175 206 177 212 155 192 221 151 126 174 178 132 157 170 159 134 132 229 31 44 287 222 209 215 209 207 226 241 163 175 195 189 187 190 189 196